[Date Prev][Date Next][Thread Prev][Thread Next] - [Date Index][Thread Index][Author Index]
2 Line ISS Keps 10-9
- Subject: [sarex] 2 Line ISS Keps 10-9
- From: "Scott Avery WA6LIE" <wa6lie@xxxxxxx>
- Date: Sat, 9 Oct 2004 04:06:00 -0700
- Seal-Send-Time: Sat, 9 Oct 2004 04:06:00 -0700
ISS
1 25544U 98067A 04283.36382888 .00015706 00000-0 13856-3 0 8706
2 25544 51.6352 103.1126 0009521 203.3842 230.4706 15.68855848336256
----
Via the sarex mailing list at AMSAT.ORG courtesy of AMSAT-NA.
To unsubscribe, send "unsubscribe sarex" to Majordomo@amsat.org
AMSAT Home